DLH3HB EDDF-EGLL

Flight info

Callsign DLH3HB
Flight time 1h 8m
Altitude 38000
Route OBOKA3W OBOKA Z29 TORNU DCT ABNED L980 LOGAN
Aircraft A320/M-SDE3FGHIRWY/LB1

Departure

Time 2026-05-05 12:49
Airport Frankfurt Main Airport (EDDF)

Arrival

Time 2026-05-05 13:57
Airport London Heathrow Airport (EGLL)
Time Latitude Longitude Altitude Speed Heading
2026-05-05 12:01 50.04687 8.56701 363 ft 0 kts 115°
2026-05-05 12:33 50.04689 8.56695 363 ft 2 kts 116°
2026-05-05 12:33 50.04698 8.56669 358 ft 3 kts 129°
2026-05-05 12:34 50.04712 8.56648 358 ft 3 kts 150°
2026-05-05 12:34 50.04730 8.56637 358 ft 3 kts 181°
2026-05-05 12:34 50.04746 8.56643 357 ft 2 kts 223°
2026-05-05 12:34 50.04751 8.56650 358 ft 0 kts 234°
2026-05-05 12:39 50.04741 8.56628 365 ft 6 kts 234°
2026-05-05 12:39 50.04716 8.56572 360 ft 6 kts 233°
2026-05-05 12:39 50.04685 8.56505 359 ft 10 kts 244°
2026-05-05 12:39 50.04656 8.56386 364 ft 14 kts 250°
2026-05-05 12:40 50.04617 8.56226 358 ft 17 kts 249°
2026-05-05 12:40 50.04574 8.56046 361 ft 18 kts 250°
2026-05-05 12:40 50.04526 8.55955 362 ft 11 kts 196°
2026-05-05 12:40 50.04452 8.55921 359 ft 12 kts 197°
2026-05-05 12:41 50.04366 8.55915 358 ft 14 kts 165°
2026-05-05 12:41 50.04289 8.55959 359 ft 9 kts 163°
2026-05-05 12:41 50.04234 8.55932 359 ft 10 kts 215°
2026-05-05 12:41 50.04160 8.55932 360 ft 12 kts 159°
2026-05-05 12:42 50.04090 8.55977 359 ft 10 kts 147°
2026-05-05 12:42 50.04076 8.56067 351 ft 9 kts 70°
2026-05-05 12:42 50.04109 8.56203 357 ft 14 kts 70°
2026-05-05 12:42 50.04142 8.56341 361 ft 14 kts 70°
2026-05-05 12:43 50.04181 8.56506 359 ft 16 kts 69°
2026-05-05 12:43 50.04223 8.56682 357 ft 20 kts 70°
2026-05-05 12:43 50.04275 8.56899 362 ft 22 kts 70°
2026-05-05 12:43 50.04330 8.57129 365 ft 22 kts 69°
2026-05-05 12:44 50.04385 8.57362 365 ft 24 kts 70°
2026-05-05 12:44 50.04444 8.57609 369 ft 23 kts 70°
2026-05-05 12:44 50.04500 8.57840 370 ft 19 kts 70°
2026-05-05 12:44 50.04542 8.58019 363 ft 16 kts 69°
2026-05-05 12:45 50.04579 8.58176 368 ft 14 kts 70°
2026-05-05 12:45 50.04608 8.58295 370 ft 13 kts 69°
2026-05-05 12:45 50.04643 8.58443 374 ft 11 kts 69°
2026-05-05 12:45 50.04651 8.58540 369 ft 8 kts 114°
2026-05-05 12:46 50.04610 8.58579 369 ft 5 kts 160°
2026-05-05 12:46 50.04593 8.58588 372 ft 0 kts 160°
2026-05-05 12:47 50.04561 8.58606 372 ft 7 kts 160°
2026-05-05 12:47 50.04529 8.58623 371 ft 5 kts 165°
2026-05-05 12:47 50.04499 8.58621 371 ft 3 kts 207°
2026-05-05 12:48 50.04486 8.58585 370 ft 8 kts 248°
2026-05-05 12:48 50.04387 8.58169 369 ft 78 kts 249°
2026-05-05 12:48 50.04122 8.57060 367 ft 137 kts 249°
2026-05-05 12:48 50.03735 8.55457 598 ft 164 kts 249°
2026-05-05 12:49 50.03341 8.53793 1352 ft 164 kts 250°
2026-05-05 12:49 50.02936 8.52090 1859 ft 180 kts 249°
2026-05-05 12:49 50.02399 8.50214 2239 ft 199 kts 234°
2026-05-05 12:49 50.01367 8.48702 2868 ft 207 kts 210°
2026-05-05 12:50 50.00008 8.47961 3672 ft 209 kts 188°
2026-05-05 12:50 49.98565 8.47641 4520 ft 210 kts 188°
2026-05-05 12:50 49.97133 8.47337 5363 ft 210 kts 188°
2026-05-05 12:50 49.95684 8.46926 6160 ft 214 kts 195°
2026-05-05 12:51 49.94175 8.46258 6571 ft 236 kts 196°
2026-05-05 12:51 49.92600 8.45407 7221 ft 246 kts 206°
2026-05-05 12:51 49.91194 8.43823 8023 ft 253 kts 225°
2026-05-05 12:51 49.90142 8.41610 8900 ft 258 kts 238°
2026-05-05 12:52 49.89241 8.39192 9774 ft 262 kts 243°
2026-05-05 12:52 49.88692 8.36468 10531 ft 270 kts 259°
2026-05-05 12:52 49.88657 8.33426 10885 ft 295 kts 274°
2026-05-05 12:52 49.88863 8.30181 11183 ft 317 kts 275°
2026-05-05 12:53 49.89402 8.26720 11419 ft 343 kts 289°
2026-05-05 12:53 49.90568 8.23390 11884 ft 358 kts 304°
2026-05-05 12:53 49.92090 8.20266 12603 ft 362 kts 305°
2026-05-05 12:53 49.93612 8.17104 13363 ft 367 kts 307°
2026-05-05 12:54 49.97341 8.11552 14636 ft 377 kts 318°
2026-05-05 12:54 49.99352 8.08899 15267 ft 381 kts 319°
2026-05-05 12:54 50.01393 8.06219 15902 ft 385 kts 318°
2026-05-05 12:55 50.03426 8.03534 16537 ft 389 kts 318°
2026-05-05 12:55 50.05502 8.00779 17161 ft 393 kts 318°
2026-05-05 12:55 50.07588 7.97993 17775 ft 397 kts 317°
2026-05-05 12:55 50.09689 7.95169 18348 ft 401 kts 317°
2026-05-05 12:56 50.11818 7.92314 18883 ft 404 kts 318°
2026-05-05 12:56 50.13919 7.89451 19397 ft 406 kts 312°
2026-05-05 12:56 50.15849 7.86213 19908 ft 408 kts 310°
2026-05-05 12:56 50.17764 7.82915 20455 ft 411 kts 310°
2026-05-05 12:57 50.19681 7.79576 20979 ft 413 kts 310°
2026-05-05 12:57 50.21586 7.76243 21479 ft 417 kts 310°
2026-05-05 12:57 50.23525 7.72837 21973 ft 420 kts 310°
2026-05-05 12:57 50.25477 7.69412 22457 ft 423 kts 310°
2026-05-05 12:58 50.27451 7.65958 22941 ft 426 kts 310°
2026-05-05 12:58 50.29412 7.62530 23406 ft 429 kts 310°
2026-05-05 12:58 50.31413 7.59028 23810 ft 432 kts 310°
2026-05-05 12:58 50.33430 7.55496 24208 ft 435 kts 309°
2026-05-05 12:59 50.35427 7.51992 24593 ft 437 kts 309°
2026-05-05 12:59 50.37456 7.48424 24979 ft 439 kts 309°
2026-05-05 12:59 50.39491 7.44836 25356 ft 442 kts 309°
2026-05-05 13:00 50.43600 7.37599 26174 ft 445 kts 308°
2026-05-05 13:00 50.45667 7.33943 26580 ft 446 kts 308°
2026-05-05 13:01 50.51867 7.22939 27708 ft 452 kts 308°
2026-05-05 13:01 50.53957 7.19214 28061 ft 454 kts 308°
2026-05-05 13:01 50.56050 7.15485 28402 ft 456 kts 308°
2026-05-05 13:01 50.58137 7.11766 28731 ft 458 kts 308°
2026-05-05 13:02 50.60255 7.07987 29043 ft 460 kts 307°
2026-05-05 13:02 50.62386 7.04190 29380 ft 462 kts 307°
2026-05-05 13:02 50.64524 7.00372 29717 ft 464 kts 307°
2026-05-05 13:02 50.66637 6.96588 30022 ft 465 kts 308°
2026-05-05 13:03 50.68777 6.92742 30441 ft 463 kts 307°
2026-05-05 13:03 50.70893 6.88930 30855 ft 461 kts 307°
2026-05-05 13:03 50.73002 6.85131 31228 ft 460 kts 307°
2026-05-05 13:03 50.75107 6.81335 31592 ft 459 kts 307°
2026-05-05 13:04 50.77184 6.77576 31949 ft 458 kts 306°
2026-05-05 13:04 50.79278 6.73778 32309 ft 458 kts 306°
2026-05-05 13:04 50.81377 6.69970 32608 ft 458 kts 306°
2026-05-05 13:04 50.83480 6.66149 32831 ft 460 kts 306°
2026-05-05 13:05 50.85586 6.62316 33144 ft 461 kts 306°
2026-05-05 13:05 50.87687 6.58480 33485 ft 460 kts 306°
2026-05-05 13:05 50.89760 6.54690 33809 ft 459 kts 306°
2026-05-05 13:05 50.91857 6.50858 33876 ft 458 kts 306°
2026-05-05 13:06 50.96019 6.43253 33878 ft 458 kts 306°
2026-05-05 13:06 51.00186 6.35603 33889 ft 457 kts 306°
2026-05-05 13:07 51.04328 6.27991 33887 ft 454 kts 306°
2026-05-05 13:07 51.08425 6.20428 33887 ft 453 kts 305°
2026-05-05 13:08 51.12415 6.12640 33881 ft 449 kts 298°
2026-05-05 13:08 51.15023 6.03799 33895 ft 439 kts 281°
2026-05-05 13:09 51.16548 5.94407 33888 ft 438 kts 279°
2026-05-05 13:09 51.18061 5.85060 33891 ft 438 kts 281°
2026-05-05 13:10 51.20313 5.75938 33892 ft 442 kts 288°
2026-05-05 13:10 51.22714 5.66889 33900 ft 443 kts 288°
2026-05-05 13:11 51.25080 5.57841 33898 ft 444 kts 288°
2026-05-05 13:11 51.27464 5.48712 33902 ft 444 kts 288°
2026-05-05 13:12 51.29821 5.39650 33899 ft 444 kts 287°
2026-05-05 13:12 51.32193 5.30509 33909 ft 444 kts 287°
2026-05-05 13:13 51.34567 5.21358 33917 ft 445 kts 288°
2026-05-05 13:13 51.36923 5.12239 33919 ft 446 kts 287°
2026-05-05 13:14 51.39284 5.03040 33918 ft 446 kts 287°
2026-05-05 13:14 51.41619 4.93882 33920 ft 446 kts 287°
2026-05-05 13:15 51.43962 4.84660 33921 ft 446 kts 287°
2026-05-05 13:15 51.46292 4.75474 33921 ft 448 kts 287°
2026-05-05 13:16 51.48584 4.66375 33921 ft 447 kts 287°
2026-05-05 13:16 51.50907 4.57155 33921 ft 444 kts 287°
2026-05-05 13:17 51.53206 4.48006 33919 ft 443 kts 287°
2026-05-05 13:17 51.55493 4.38829 33919 ft 443 kts 287°
2026-05-05 13:18 51.57782 4.29592 33918 ft 443 kts 286°
2026-05-05 13:18 51.60059 4.20348 33918 ft 443 kts 286°
2026-05-05 13:19 51.62316 4.11167 33918 ft 443 kts 286°
2026-05-05 13:19 51.64584 4.01899 33917 ft 443 kts 286°
2026-05-05 13:20 51.66840 3.92682 33927 ft 443 kts 286°
2026-05-05 13:20 51.69103 3.83411 33945 ft 445 kts 287°
2026-05-05 13:21 51.71354 3.74144 33940 ft 446 kts 287°
2026-05-05 13:21 51.73605 3.64795 33944 ft 446 kts 287°
2026-05-05 13:22 51.75837 3.55498 33955 ft 446 kts 287°
2026-05-05 13:22 51.78063 3.46162 33953 ft 444 kts 287°
2026-05-05 13:23 51.80274 3.36839 33959 ft 443 kts 288°
2026-05-05 13:23 51.82481 3.27544 33953 ft 441 kts 288°
2026-05-05 13:24 51.84284 3.18160 33951 ft 436 kts 276°
2026-05-05 13:24 51.84357 3.08429 33956 ft 431 kts 261°
2026-05-05 13:25 51.83826 3.00434 33951 ft 430 kts 261°
2026-05-05 13:25 51.83204 2.90827 33969 ft 429 kts 262°
2026-05-05 13:26 51.82610 2.81751 33959 ft 428 kts 262°
2026-05-05 13:26 51.81962 2.72155 33959 ft 428 kts 261°
2026-05-05 13:27 51.81309 2.62636 33959 ft 428 kts 261°
2026-05-05 13:27 51.80648 2.53078 33961 ft 428 kts 261°
2026-05-05 13:28 51.80316 2.48298 33465 ft 426 kts 261°
2026-05-05 13:28 51.79989 2.43584 32557 ft 428 kts 261°
2026-05-05 13:28 51.79650 2.38774 31620 ft 431 kts 261°
2026-05-05 13:28 51.79304 2.33926 30675 ft 435 kts 261°
2026-05-05 13:29 51.78952 2.29046 29633 ft 439 kts 261°
2026-05-05 13:29 51.78600 2.24188 28789 ft 438 kts 261°
2026-05-05 13:29 51.78254 2.19293 27987 ft 435 kts 261°
2026-05-05 13:29 51.77949 2.14433 27268 ft 433 kts 262°
2026-05-05 13:30 51.77678 2.09673 26572 ft 430 kts 262°
2026-05-05 13:30 51.77414 2.04847 25879 ft 427 kts 263°
2026-05-05 13:30 51.77152 2.00081 25249 ft 425 kts 263°
2026-05-05 13:30 51.76882 1.95330 25001 ft 422 kts 262°
2026-05-05 13:31 51.76607 1.90670 24963 ft 412 kts 262°
2026-05-05 13:31 51.76331 1.86127 24973 ft 411 kts 262°
2026-05-05 13:31 51.76048 1.81543 24972 ft 409 kts 263°
2026-05-05 13:31 51.75754 1.76888 24961 ft 421 kts 262°
2026-05-05 13:32 51.75456 1.72176 24469 ft 419 kts 262°
2026-05-05 13:32 51.75162 1.67496 23792 ft 418 kts 262°
2026-05-05 13:32 51.74874 1.62895 23091 ft 416 kts 262°
2026-05-05 13:32 51.74580 1.58228 22403 ft 413 kts 262°
2026-05-05 13:33 51.74287 1.53634 21752 ft 410 kts 263°
2026-05-05 13:33 51.73992 1.49069 21160 ft 406 kts 263°
2026-05-05 13:33 51.73704 1.44609 20604 ft 402 kts 263°
2026-05-05 13:33 51.73413 1.40132 20031 ft 399 kts 263°
2026-05-05 13:34 51.73122 1.35676 19456 ft 397 kts 263°
2026-05-05 13:34 51.72833 1.31268 18919 ft 393 kts 263°
2026-05-05 13:34 51.72545 1.26895 18412 ft 390 kts 264°
2026-05-05 13:34 51.72257 1.22558 17842 ft 388 kts 264°
2026-05-05 13:35 51.71970 1.18248 17257 ft 385 kts 263°
2026-05-05 13:35 51.71688 1.14016 16723 ft 383 kts 264°
2026-05-05 13:35 51.71400 1.09747 16205 ft 379 kts 263°
2026-05-05 13:35 51.71114 1.05529 15714 ft 376 kts 263°
2026-05-05 13:36 51.70827 1.01335 15206 ft 374 kts 263°
2026-05-05 13:36 51.70542 0.97219 14981 ft 374 kts 263°
2026-05-05 13:36 51.70255 0.93047 14967 ft 373 kts 264°
2026-05-05 13:36 51.69968 0.88876 14927 ft 373 kts 264°
2026-05-05 13:37 51.69682 0.84732 14220 ft 377 kts 264°
2026-05-05 13:37 51.69386 0.80496 13462 ft 381 kts 264°
2026-05-05 13:37 51.69084 0.76245 12715 ft 382 kts 264°
2026-05-05 13:37 51.68782 0.71996 12102 ft 379 kts 264°
2026-05-05 13:38 51.68485 0.67841 11623 ft 372 kts 264°
2026-05-05 13:38 51.68196 0.63788 11479 ft 356 kts 264°
2026-05-05 13:38 51.67921 0.59950 11342 ft 330 kts 264°
2026-05-05 13:38 51.67664 0.56415 11159 ft 308 kts 264°
2026-05-05 13:39 51.67419 0.53018 10944 ft 300 kts 264°
2026-05-05 13:39 51.67181 0.49752 10767 ft 295 kts 264°
2026-05-05 13:39 51.66939 0.46466 10488 ft 297 kts 264°
2026-05-05 13:39 51.66693 0.43143 10136 ft 295 kts 264°
2026-05-05 13:40 51.66456 0.39908 9708 ft 292 kts 264°
2026-05-05 13:40 51.66218 0.36656 9133 ft 291 kts 264°
2026-05-05 13:40 51.65982 0.33444 8955 ft 286 kts 264°
2026-05-05 13:40 51.65745 0.30256 8963 ft 286 kts 264°
2026-05-05 13:41 51.65507 0.27073 8576 ft 286 kts 264°
2026-05-05 13:41 51.65270 0.23934 8065 ft 285 kts 264°
2026-05-05 13:41 51.65035 0.20862 7886 ft 264 kts 264°
2026-05-05 13:41 51.64815 0.17969 7658 ft 256 kts 264°
2026-05-05 13:42 51.64603 0.15152 7382 ft 252 kts 264°
2026-05-05 13:42 51.64391 0.12326 6993 ft 262 kts 264°
2026-05-05 13:42 51.64164 0.09321 6969 ft 276 kts 264°
2026-05-05 13:42 51.63935 0.06229 6972 ft 278 kts 264°
2026-05-05 13:43 51.63706 0.03136 6971 ft 278 kts 264°
2026-05-05 13:43 51.63487 0.00115 6967 ft 263 kts 264°
2026-05-05 13:43 51.63285 -0.02725 6953 ft 248 kts 264°
2026-05-05 13:43 51.63085 -0.05429 6677 ft 245 kts 265°
2026-05-05 13:44 51.62886 -0.08143 6364 ft 243 kts 264°
2026-05-05 13:44 51.62685 -0.10847 6056 ft 241 kts 264°
2026-05-05 13:44 51.62480 -0.13526 6026 ft 242 kts 265°
2026-05-05 13:44 51.62403 -0.16209 6032 ft 243 kts 269°
2026-05-05 13:45 51.62394 -0.18934 6033 ft 242 kts 271°
2026-05-05 13:45 51.62388 -0.21660 6044 ft 244 kts 271°
2026-05-05 13:45 51.62385 -0.24392 6031 ft 242 kts 272°
2026-05-05 13:45 51.62384 -0.27071 6033 ft 242 kts 271°
2026-05-05 13:46 51.62387 -0.29787 5960 ft 240 kts 271°
2026-05-05 13:46 51.62387 -0.32470 5581 ft 241 kts 270°
2026-05-05 13:46 51.62377 -0.35173 5190 ft 241 kts 271°
2026-05-05 13:46 51.62373 -0.37851 5014 ft 238 kts 272°
2026-05-05 13:47 51.62363 -0.40499 5008 ft 241 kts 271°
2026-05-05 13:47 51.62343 -0.43213 5009 ft 242 kts 271°
2026-05-05 13:47 51.62321 -0.45937 4886 ft 241 kts 270°
2026-05-05 13:47 51.62304 -0.48604 4760 ft 240 kts 271°
2026-05-05 13:48 51.62292 -0.51287 4626 ft 240 kts 271°
2026-05-05 13:48 51.62267 -0.53997 4491 ft 241 kts 271°
2026-05-05 13:48 51.62256 -0.56680 4360 ft 239 kts 271°
2026-05-05 13:48 51.62243 -0.59348 4227 ft 239 kts 272°
2026-05-05 13:49 51.62221 -0.62022 4111 ft 238 kts 271°
2026-05-05 13:49 51.62195 -0.64669 3997 ft 239 kts 271°
2026-05-05 13:49 51.62169 -0.67336 4003 ft 237 kts 271°
2026-05-05 13:49 51.62148 -0.69928 3994 ft 227 kts 271°
2026-05-05 13:50 51.62025 -0.72454 3848 ft 227 kts 255°
2026-05-05 13:50 51.61195 -0.74591 3704 ft 228 kts 219°
2026-05-05 13:50 51.59799 -0.75633 3561 ft 224 kts 188°
2026-05-05 13:50 51.58287 -0.75895 3426 ft 212 kts 181°
2026-05-05 13:51 51.56834 -0.76019 3275 ft 206 kts 181°
2026-05-05 13:51 51.55429 -0.76118 3129 ft 202 kts 181°
2026-05-05 13:51 51.54018 -0.76212 2934 ft 202 kts 181°
2026-05-05 13:51 51.52611 -0.76318 2738 ft 202 kts 181°
2026-05-05 13:52 51.51199 -0.76427 2556 ft 202 kts 181°
2026-05-05 13:52 51.49801 -0.76541 2495 ft 202 kts 181°
2026-05-05 13:52 51.48395 -0.76538 2495 ft 201 kts 163°
2026-05-05 13:52 51.47313 -0.75317 2497 ft 189 kts 113°
2026-05-05 13:53 51.47194 -0.73375 2517 ft 169 kts 68°
2026-05-05 13:53 51.47601 -0.71728 2487 ft 151 kts 79°
2026-05-05 13:53 51.47591 -0.70073 2502 ft 146 kts 84°
2026-05-05 13:53 51.47624 -0.68480 2468 ft 144 kts 84°
2026-05-05 13:54 51.47647 -0.66874 2343 ft 143 kts 85°
2026-05-05 13:54 51.47662 -0.65296 2175 ft 143 kts 85°
2026-05-05 13:54 51.47674 -0.63703 2022 ft 141 kts 86°
2026-05-05 13:54 51.47683 -0.62155 1824 ft 138 kts 86°
2026-05-05 13:55 51.47691 -0.60630 1635 ft 135 kts 84°
2026-05-05 13:55 51.47699 -0.59124 1456 ft 134 kts 87°
2026-05-05 13:55 51.47707 -0.57646 1264 ft 134 kts 85°
2026-05-05 13:55 51.47714 -0.56141 1082 ft 134 kts 86°
2026-05-05 13:56 51.47721 -0.54640 899 ft 134 kts 85°
2026-05-05 13:56 51.47733 -0.53144 708 ft 135 kts 86°
2026-05-05 13:56 51.47748 -0.51665 485 ft 133 kts 87°
2026-05-05 13:56 51.47744 -0.50214 339 ft 134 kts 89°
2026-05-05 13:57 51.47749 -0.48727 172 ft 133 kts 88°
2026-05-05 13:57 51.47751 -0.47304 89 ft 116 kts 88°
2026-05-05 13:57 51.47756 -0.46393 96 ft 39 kts 90°
2026-05-05 13:57 51.47742 -0.46199 91 ft 13 kts 125°
2026-05-05 13:58 51.47672 -0.46111 88 ft 10 kts 144°
2026-05-05 13:58 51.47621 -0.46063 91 ft 8 kts 161°
2026-05-05 13:58 51.47579 -0.46073 92 ft 7 kts 206°
2026-05-05 13:58 51.47541 -0.46094 91 ft 5 kts 204°
2026-05-05 13:59 51.47516 -0.46264 89 ft 12 kts 270°
2026-05-05 13:59 51.47516 -0.46394 90 ft 13 kts 270°
2026-05-05 14:00 51.47506 -0.46740 90 ft 11 kts 246°
2026-05-05 14:00 51.47495 -0.46824 91 ft 11 kts 270°
2026-05-05 14:00 51.47494 -0.46966 91 ft 8 kts 268°
2026-05-05 14:00 51.47493 -0.47079 92 ft 13 kts 269°
2026-05-05 14:01 51.47493 -0.47219 90 ft 13 kts 270°
2026-05-05 14:01 51.47493 -0.47363 89 ft 12 kts 270°
2026-05-05 14:01 51.47491 -0.47495 91 ft 15 kts 269°
2026-05-05 14:01 51.47490 -0.47666 91 ft 15 kts 270°
2026-05-05 14:02 51.47489 -0.47836 89 ft 15 kts 270°
2026-05-05 14:02 51.47491 -0.47985 91 ft 12 kts 270°
2026-05-05 14:02 51.47491 -0.48108 91 ft 11 kts 270°
2026-05-05 14:02 51.47490 -0.48231 89 ft 11 kts 269°
2026-05-05 14:03 51.47489 -0.48357 89 ft 10 kts 269°
2026-05-05 14:03 51.47480 -0.48455 93 ft 8 kts 237°
2026-05-05 14:03 51.47429 -0.48476 89 ft 9 kts 181°
2026-05-05 14:03 51.47339 -0.48476 87 ft 14 kts 179°
2026-05-05 14:04 51.47262 -0.48474 88 ft 8 kts 179°
2026-05-05 14:04 51.47211 -0.48474 88 ft 4 kts 181°
2026-05-05 14:04 51.47190 -0.48486 89 ft 3 kts 219°
2026-05-05 14:04 51.47185 -0.48513 89 ft 3 kts 270°
2026-05-05 14:05 51.47187 -0.48555 88 ft 3 kts 270°
2026-05-05 14:05 51.47187 -0.48572 89 ft 1 kts 270°
2026-05-05 14:05 51.47187 -0.48584 88 ft 1 kts 270°
2026-05-05 14:05 51.47187 -0.48588 88 ft 0 kts 270°